Weather History for KOKB - July, 2014

Change the Weather History Date:

Saturday, July 19, 2014

  Actual Average Record
Temperature  
Mean Temperature 68 °F 69 °F  
Max Temperature 76 °F 76 °F 83 °F (2004)
Min Temperature 60 °F 62 °F 54 °F (2000)
Degree Days  
Heating Degree Days 0 0  
Month to date heating degree days 0 0  
Since 1 June heating degree days 4 27  
Since 1 July heating degree days 0 0  
Cooling Degree Days 3 4  
Month to date cooling degree days 73 65  
Year to date cooling degree days 202 113  
Since 1 June cooling degree days 110 103  
Growing Degree Days 17 (Base 50)    
Moisture  
Dew Point 60 °F    
Average Humidity 77    
Maximum Humidity 90    
Minimum Humidity 64    
Precipitation  
Precipitation 0.00 in 0.00 in 0.00 in (2015)
Month to date precipitation T 0.09  
Year to date precipitation 2.60 9.36  
Since 1 July precipitation T 0.09  
Snow  
Snow 0.00 in - - ()
Month to date snowfall 0.0  
Year to date snowfall 0.0  
Since 1 July snowfall 0.0  
Snow Depth 0.00 in    
Sea Level Pressure  
Sea Level Pressure 29.96 in    
Wind  
Wind Speed 4 mph (WSW)    
Max Wind Speed 15 mph    
Max Gust Speed 19 mph    
Visibility 10 miles    
Events      
T = Trace of Precipitation, MM = Missing Value Source: NWS Daily Summary

Daily Weather History Graph

Daily Weather History Graph

Search for Another Location

Airport or City:

Trip Planner

Search our weather history database for the weather conditions in past years. The results will help you decide how hot, cold, wet, or windy it might be!

Date:

Astronomy

Jul. 19, 2014 Rise Set
Actual Time 5:53 AM PDT 7:57 PM PDT
Civil Twilight 5:25 AM PDT 8:25 PM PDT
Nautical Twilight 4:51 AM PDT 8:59 PM PDT
Astronomical Twilight 4:15 AM PDT 9:35 PM PDT
Moon 12:22 AM PDT (7/19) 1:50 PM PDT (7/19)
Length of Visible Light 14h 59m
Length of Day
14h 03m
Last Quarter, 43% of the Moon is Illuminated
Jul 19
Last Quarter
Jul 26
New
Aug 3
First Quarter
Aug 10
Full
Aug 17
Last Quarter

Hourly Weather History & Observations

Time (PDT) Temp. Dew Point Humidity Pressure Visibility Wind Dir Wind Speed Gust Speed Precip Events Conditions
12:52 AM 64.0 °F 60.1 °F 87% 29.95 in 10.0 mi Calm Calm - N/A   Clear
1:52 AM 63.0 °F 59.0 °F 87% 29.94 in 10.0 mi Calm Calm - N/A   Clear
2:52 AM 61.0 °F 57.0 °F 87% 29.92 in 10.0 mi Calm Calm - N/A   Clear
3:52 AM 61.0 °F 57.0 °F 87% 29.93 in 10.0 mi Calm Calm - N/A   Clear
5:52 AM 61.0 °F 57.0 °F 87% 29.95 in 10.0 mi Calm Calm - N/A   Clear
8:52 AM 66.0 °F 60.1 °F 81% 29.99 in 10.0 mi East 3.5 mph - N/A   Clear
10:52 AM 71.1 °F 60.1 °F 68% 29.97 in 10.0 mi WSW 6.9 mph - N/A   Partly Cloudy
11:17 AM 73.0 °F 60.1 °F 64% 29.96 in 10.0 mi WSW 5.8 mph - N/A   Mostly Cloudy
11:48 AM 73.4 °F 60.8 °F 65% 29.97 in 10.0 mi WSW 8.1 mph - N/A   Scattered Clouds
11:52 AM 73.0 °F 60.1 °F 64% 29.97 in 10.0 mi West 6.9 mph - N/A   Partly Cloudy
12:52 PM 72.0 °F 60.1 °F 66% 29.96 in 10.0 mi Variable 5.8 mph - N/A   Clear
1:52 PM 71.1 °F 60.1 °F 68% 29.96 in 10.0 mi WSW 13.8 mph - N/A   Clear
2:52 PM 72.0 °F 61.0 °F 68% 29.95 in 10.0 mi West 9.2 mph - N/A   Partly Cloudy
3:52 PM 71.1 °F 61.0 °F 70% 29.95 in 10.0 mi West 9.2 mph - N/A   Partly Cloudy
4:06 PM 72.0 °F 61.0 °F 68% 29.95 in 10.0 mi West 6.9 mph - N/A   Mostly Cloudy
4:40 PM 72.0 °F 61.0 °F 68% 29.94 in 10.0 mi SW 11.5 mph - N/A   Scattered Clouds
4:52 PM 71.1 °F 60.1 °F 68% 29.94 in 10.0 mi WSW 11.5 mph - N/A   Partly Cloudy
5:52 PM 71.1 °F 61.0 °F 70% 29.94 in 10.0 mi SW 9.2 mph - N/A   Scattered Clouds
6:52 PM 70.0 °F 61.0 °F 73% 29.94 in 10.0 mi WSW 6.9 mph - N/A   Scattered Clouds
8:52 PM 68.0 °F 61.0 °F 78% 29.96 in 10.0 mi West 4.6 mph - N/A   Clear
9:16 PM 68.0 °F 61.0 °F 78% 29.96 in 10.0 mi West 3.5 mph - N/A   Mostly Cloudy
9:52 PM 68.0 °F 61.0 °F 78% 29.97 in 10.0 mi Calm Calm - N/A   Mostly Cloudy
10:08 PM 68.0 °F 61.0 °F 78% 29.97 in 10.0 mi Calm Calm - N/A   Scattered Clouds
10:52 PM 66.9 °F 60.1 °F 79% 29.97 in 10.0 mi Calm Calm - N/A   Clear
11:52 PM 66.0 °F 60.1 °F 81% 29.97 in 10.0 mi Calm Calm - N/A   Clear